[[{"header":{"parameterUnit":"m.s-1","parameterCategory":1,"la1":30.2991,"la2":30.254,"lo1":-89.0895,"lo2":-89.0444,"dy":0.0017,"dx":0.0017,"nx":28,"ny":28,"refTime":"2023-09-21T21:00:00:Z","depth":0,"parameterNumber":2,"parameterNumberName":"U-component_of_WINDS"},"data":[0,0,0,0,0,0,0,0,0,0,0,0,0,0,0,0,0,0,0,0,0,0,0,0,0,0,0,0,0,0,0,0,0,0,0,0,0,0,0,0,0,0,0,0,0,0,0,0,0,0,0,0,0,0,0,0,0,0,-3.2667,-3.2667,0,-3.2621,-3.2621,-3.262,-3.2492,-3.2489,-3.2486,-3.2484,-3.2441,-3.2442,-3.2444,0,0,0,0,0,0,0,0,0,0,0,0,0,-3.2649,-3.265,-3.2667,-3.2667,-3.2666,-3.2621,-3.2621,-3.262,-3.2492,-3.2489,-3.2486,-3.2482,-3.244,-3.2442,-3.2444,0,0,0,0,0,0,0,0,0,0,0,0,0,-3.2636,-3.265,-3.2667,-3.2597,-3.259,-3.2622,-3.2621,-3.262,-3.2493,-3.2489,-3.2485,-3.2481,-3.244,-3.2442,-3.2444,-3.2541,0,0,-3.2451,-3.2452,0,0,0,0,0,0,0,0,-3.2637,-3.2637,-3.2608,-3.2602,-3.2594,-3.2558,-3.2598,-3.2594,-3.2494,-3.253,-3.2484,-3.2479,-3.2483,-3.2482,-3.2482,-3.2539,-3.2537,-3.2451,-3.2452,-3.2453,-3.2454,0,0,0,0,0,0,0,-3.2638,-3.2638,-3.2649,-3.2608,-3.2599,-3.2569,-3.2563,-3.2597,-3.2531,-3.2527,-3.2517,-3.2513,-3.2479,-3.2481,-3.2481,-3.2537,-3.2451,-3.2453,-3.2454,-3.2455,-3.2674,-3.2678,0,0,0,0,0,0,-3.2648,-3.2639,-3.2651,-3.2648,-3.2605,-3.2573,-3.2566,-3.2574,-3.253,-3.2519,-3.2517,-3.2508,-3.2479,-3.2478,-3.2479,-3.2591,-3.2453,-3.2455,-3.2456,-3.267,-3.2675,-3.268,0,0,0,0,0,0,-3.2648,-3.265,-3.2652,-3.2641,-3.2639,-3.2578,-3.2588,-3.2575,-3.2577,-3.2523,-3.2511,-3.2531,-3.2476,-3.2475,-3.2527,-3.2588,-3.2456,-3.2458,-3.2664,-3.2671,-3.2678,-3.2816,0,0,0,0,0,0,-3.2648,-3.2651,-3.2686,-3.2643,-3.264,-3.27,-3.2592,-3.2577,-3.258,-3.2568,-3.2532,-3.2523,-3.2472,-3.2524,-3.2529,-3.2588,-3.246,-3.2659,-3.2668,-3.2675,-3.2806,-3.2827,-3.2845,0,0,0,0,0,-3.2648,-3.2727,-3.2688,-3.269,-3.2682,-3.2704,-3.2703,-3.2642,-3.2586,-3.2621,-3.2587,-3.2524,-3.2581,-3.2531,-3.2535,-3.2596,-3.2655,-3.2665,-3.2675,-3.2797,-3.2823,-3.2845,0,0,0,0,0,0,-3.278,-3.272,-3.2676,-3.2744,-3.273,-3.2682,-3.2725,-3.2671,-3.2674,-3.2662,-3.2588,-3.2581,-3.2644,-3.2625,-3.257,-3.2689,-3.2607,-3.2619,-3.2699,-3.2723,-3.2742,-3.2745,-3.2462,0,0,0,0,0,-3.2817,-3.2838,-3.2785,-3.285,-3.2845,-3.2787,-3.2794,-3.2749,-3.2732,-3.2726,-3.2695,-3.2683,-3.2698,-3.2709,-3.272,-3.2803,-3.2795,-3.2847,-3.2867,-3.2883,-3.2894,-3.2939,-3.2962,-3.2713,-3.2713,-3.2713,0,0,-3.2893,-3.2863,-3.2881,-3.2875,-3.2859,-3.2885,-3.2783,-3.2813,-3.2832,-3.2731,-3.2777,-3.2755,-3.2737,-3.2805,-3.2834,-3.2791,-3.2961,-3.2896,-3.2909,-3.2911,-3.2952,-3.2976,-3.2997,-3.272,-3.2719,-3.2718,0,0,-3.3045,-3.3024,-3.3076,-3.3063,-3.304,-3.3001,-3.3014,-3.2975,-3.2956,-3.3002,-3.2927,-3.2949,-3.2976,-3.2967,-3.2965,-3.3118,-3.306,-3.3123,-3.3225,-3.327,-3.3289,-3.3307,-3.3362,-3.3383,-3.3134,-3.3135,-3.3135,0,-3.3143,-3.3177,-3.311,-3.3146,-3.3147,-3.3056,-3.311,-3.3101,-3.3083,-3.3087,-3.3039,-3.3073,-3.3054,-3.312,-3.3157,-3.3159,-3.3173,-3.3127,-3.3292,-3.3308,-3.3323,-3.3376,-3.3397,-3.3143,-3.3142,-3.3141,-3.314,0,-3.33,-3.3325,-3.337,-3.3355,-3.3361,-3.3406,-3.3348,-3.3363,-3.3318,-3.3285,-3.3335,-3.3309,-3.3314,-3.3326,-3.3283,-3.3387,-3.3362,-3.3305,-3.3221,-3.3356,-3.3404,-3.3424,-3.3154,-3.3151,-3.3149,-3.3147,0,0,-3.3532,-3.3481,-3.3499,-3.3492,-3.3461,-3.348,-3.3523,-3.3527,-3.3542,-3.3534,-3.3568,-3.3595,-3.3542,-3.3541,-3.3496,-3.3535,-3.366,-3.3473,-3.3471,-3.351,-3.3776,-3.382,-3.3844,-3.3622,-3.3625,-3.3628,-3.3778,0,-3.3676,-3.3744,-3.3686,-3.3766,-3.3789,-3.3705,-3.3742,-3.3729,-3.37,-3.3718,-3.3686,-3.3707,-3.3634,-3.3634,-3.3669,-3.3638,-3.3713,-3.3626,-3.3656,-3.3657,-3.3663,-3.3869,-3.3915,-3.4058,-3.3796,-3.38,-3.3802,0,-3.3853,-3.3853,-3.3935,-3.3901,-3.3909,-3.3943,-3.3944,-3.3961,-3.3946,-3.3922,-3.3923,-3.3868,-3.3909,-3.3828,-3.3885,-3.3827,-3.3837,-3.3824,-3.3828,-3.3828,-3.3738,-3.3877,-3.4101,-3.4124,-3.3831,-3.3828,-3.3826,0,-3.4016,-3.4037,-3.4088,-3.4085,-3.4047,-3.4074,-3.4059,-3.4039,-3.4046,-3.4048,-3.4052,-3.4059,-3.4063,-3.407,-3.402,-3.3965,-3.4085,-3.3999,-3.4069,-3.407,-3.4097,-3.4096,-3.4328,-3.4103,-3.4103,-3.4102,-3.4102,0,-3.4184,-3.4238,-3.4161,-3.4194,-3.4252,-3.4187,-3.4248,-3.4224,-3.4208,-3.4236,-3.4164,-3.4192,-3.4123,-3.4145,-3.4106,-3.4161,-3.4163,-3.4147,-3.4136,-3.4154,-3.4156,-3.4159,-3.4148,-3.4108,-3.4106,-3.4105,-3.4104,0,-3.4375,-3.4326,-3.4377,-3.4338,-3.4329,-3.4375,-3.4341,-3.4371,-3.4338,-3.4374,-3.4379,-3.4328,-3.435,-3.4301,-3.4316,-3.429,-3.4369,-3.4342,-3.4374,-3.4366,-3.4439,-3.4434,-3.4681,-3.4711,-3.4467,-3.4469,-3.4471,0,-3.4485,-3.4525,-3.449,-3.4503,-3.4492,-3.4514,-3.4521,-3.446,-3.4471,-3.4458,-3.4489,-3.4505,-3.4515,-3.4555,-3.452,-3.4532,-3.4506,-3.4592,-3.4507,-3.4524,-3.4509,-3.4507,-3.4512,-3.4609,-3.4612,-3.4615,-3.4617,0,-3.4687,-3.4662,-3.4674,-3.4679,-3.469,-3.4691,-3.4687,-3.4702,-3.4637,-3.4654,-3.4675,-3.4682,-3.4698,-3.4716,-3.4721,-3.4708,-3.4653,-3.4644,-3.4661,-3.4679,-3.4697,-3.469,-3.4422,-3.4638,-3.4636,-3.4635,-3.4633,-3.4633,-3.4842,-3.4874,-3.4855,-3.4872,-3.4863,-3.4861,-3.4888,-3.4859,-3.4875,-3.4883,-3.4846,-3.4876,-3.4863,-3.4863,-3.4856,-3.4881,-3.4842,-3.4866,-3.4873,-3.488,-3.4892,-3.4693,-3.4881,-3.4881,-3.488,-3.4879,-3.4879,0,-3.504,-3.5025,-3.5041,-3.5038,-3.5053,-3.4999,-3.4993,-3.5009,-3.5036,-3.5027,-3.5038,-3.5065,-3.5082,-3.505,-3.5063,-3.5089,-3.5065,-3.5095,-3.5093,-3.5091,-3.4925,-3.491,-3.5115,-3.5115,-3.5115,-3.5115,-3.5115,-3.5115,-3.5146,-3.5197,-3.517,-3.5218,-3.5202,-3.523,-3.5232,-3.5232,-3.5224,-3.5257,-3.5271,-3.525,-3.5233,-3.5244,-3.5259,-3.5249,-3.5258,-3.5298,-3.528,-3.5125,-3.5102,-3.508,-3.5065,-3.53,-3.53,-3.5443,-3.5444,-3.5445]},{"header":{"parameterUnit":"m.s-1","parameterCategory":1,"la1":30.2991,"la2":30.254,"lo1":-89.0895,"lo2":-89.0444,"dy":0.0017,"dx":0.0017,"nx":28,"ny":28,"refTime":"2023-09-21T21:00:00:Z","depth":0,"parameterNumber":3,"parameterNumberName":"V-component_of_WINDS"},"data":[0,0,0,0,0,0,0,0,0,0,0,0,0,0,0,0,0,0,0,0,0,0,0,0,0,0,0,0,0,0,0,0,0,0,0,0,0,0,0,0,0,0,0,0,0,0,0,0,0,0,0,0,0,0,0,0,0,0,1.329,1.329,0,1.3265,1.3265,1.3265,1.3292,1.3293,1.3294,1.3295,1.3263,1.3261,1.3259,0,0,0,0,0,0,0,0,0,0,0,0,0,1.3355,1.3354,1.329,1.329,1.329,1.3265,1.3265,1.3265,1.3292,1.3293,1.3294,1.3295,1.3263,1.3261,1.3259,0,0,0,0,0,0,0,0,0,0,0,0,0,1.3328,1.3354,1.329,1.33,1.3301,1.3266,1.3265,1.3265,1.3291,1.3293,1.3295,1.3296,1.3264,1.3261,1.3259,1.321,0,0,1.325,1.3249,0,0,0,0,0,0,0,0,1.333,1.3326,1.3299,1.3299,1.33,1.3284,1.3276,1.3246,1.3291,1.3295,1.3295,1.3297,1.3268,1.3265,1.3257,1.3208,1.3207,1.325,1.3248,1.3247,1.3246,0,0,0,0,0,0,0,1.3332,1.3327,1.328,1.3299,1.3299,1.3304,1.3302,1.3271,1.3272,1.3295,1.3296,1.3294,1.3268,1.3259,1.3256,1.3207,1.325,1.3248,1.3246,1.3245,1.3118,1.3116,0,0,0,0,0,0,1.3333,1.3328,1.3281,1.3279,1.3319,1.3302,1.3299,1.3287,1.3273,1.3273,1.3292,1.3295,1.3263,1.3259,1.3255,1.3197,1.3247,1.3244,1.3243,1.3119,1.3117,1.3115,0,0,0,0,0,0,1.3335,1.3329,1.3282,1.3305,1.3299,1.3299,1.3285,1.3286,1.3277,1.3271,1.3271,1.3283,1.3264,1.3259,1.3222,1.3196,1.3243,1.3241,1.3121,1.3119,1.3116,1.308,0,0,0,0,0,0,1.3336,1.3329,1.3312,1.3304,1.3298,1.325,1.3283,1.3284,1.3273,1.3276,1.3262,1.3262,1.3265,1.3226,1.3219,1.3193,1.3239,1.3124,1.312,1.3117,1.3084,1.3077,1.3071,0,0,0,0,0,1.3339,1.3301,1.3311,1.3305,1.3276,1.3249,1.3245,1.3252,1.327,1.3252,1.3249,1.3262,1.3201,1.3221,1.3214,1.3187,1.3125,1.3121,1.3117,1.3086,1.3078,1.3071,0,0,0,0,0,0,1.3302,1.33,1.3311,1.327,1.326,1.3254,1.323,1.3242,1.3225,1.3228,1.3235,1.3232,1.3192,1.3186,1.321,1.314,1.3166,1.316,1.3145,1.3137,1.313,1.3131,1.3236,0,0,0,0,0,1.3291,1.327,1.3268,1.3232,1.3227,1.323,1.3218,1.3225,1.3213,1.3208,1.3202,1.3189,1.3167,1.3152,1.3131,1.3084,1.3081,1.3062,1.3055,1.305,1.3044,1.3019,1.301,1.3103,1.3103,1.3103,0,0,1.3264,1.326,1.3246,1.3225,1.3218,1.3195,1.3226,1.32,1.3183,1.3204,1.3168,1.3164,1.315,1.3107,1.3088,1.3101,1.3019,1.3045,1.3041,1.3038,1.3014,1.3005,1.2997,1.31,1.3101,1.3101,0,0,1.3204,1.32,1.3169,1.3162,1.3152,1.3155,1.3148,1.314,1.3138,1.3104,1.3119,1.3098,1.306,1.3049,1.3039,1.2977,1.2988,1.297,1.2936,1.2911,1.2903,1.2897,1.2873,1.2865,1.2965,1.2965,1.2965,0,1.3171,1.3139,1.3151,1.3125,1.3115,1.3137,1.3105,1.3097,1.3079,1.3071,1.3087,1.304,1.3032,1.2987,1.2972,1.2964,1.2954,1.2971,1.2904,1.2897,1.2891,1.2869,1.2861,1.2963,1.2963,1.2964,1.2964,0,1.3099,1.3077,1.3054,1.3039,1.3027,1.2998,1.3004,1.299,1.2998,1.2998,1.2963,1.2955,1.2933,1.2923,1.2929,1.2879,1.2887,1.2903,1.2929,1.288,1.2859,1.2851,1.296,1.2961,1.2961,1.2962,0,0,1.3012,1.3008,1.2998,1.2992,1.2984,1.2966,1.2938,1.292,1.2907,1.2895,1.287,1.2839,1.2854,1.2842,1.2848,1.2826,1.2777,1.2845,1.2845,1.2831,1.272,1.2706,1.2697,1.2786,1.2784,1.2783,1.2721,0,1.2951,1.2905,1.2916,1.2869,1.2849,1.287,1.2846,1.2837,1.2837,1.2818,1.2818,1.2795,1.2818,1.2811,1.279,1.2788,1.2754,1.2793,1.2761,1.2759,1.2761,1.2686,1.2671,1.2613,1.2713,1.2711,1.271,0,1.2873,1.2861,1.2813,1.2809,1.2801,1.2779,1.2763,1.2745,1.2736,1.2738,1.2726,1.2736,1.2707,1.2736,1.2695,1.2721,1.2709,1.2706,1.2704,1.2699,1.273,1.2677,1.2594,1.2585,1.2698,1.2699,1.27,0,1.2812,1.2784,1.2752,1.2746,1.2741,1.2725,1.2722,1.2715,1.2703,1.2689,1.2681,1.2663,1.2652,1.2637,1.2642,1.2663,1.26,1.2629,1.2598,1.2598,1.2582,1.2582,1.2494,1.2578,1.2578,1.2578,1.2578,0,1.2741,1.2711,1.2725,1.2705,1.2671,1.2684,1.265,1.2649,1.2643,1.2621,1.2639,1.2618,1.2627,1.2607,1.2611,1.2576,1.2571,1.257,1.2571,1.2567,1.2567,1.2557,1.2561,1.2576,1.2576,1.2577,1.2577,0,1.2667,1.2675,1.2642,1.2641,1.264,1.2615,1.2614,1.2594,1.2598,1.2571,1.2565,1.2569,1.2546,1.255,1.2524,1.2527,1.2483,1.2489,1.2486,1.2487,1.2456,1.2458,1.2356,1.2343,1.2437,1.2436,1.2435,0,1.262,1.2597,1.2595,1.2584,1.258,1.2561,1.255,1.2563,1.255,1.2539,1.252,1.25,1.2484,1.2446,1.2445,1.2425,1.243,1.2396,1.2427,1.2424,1.2428,1.2428,1.2426,1.2389,1.2388,1.2387,1.2386,0,1.2535,1.2541,1.2526,1.2512,1.25,1.2489,1.248,1.2469,1.2481,1.2466,1.2444,1.2432,1.2407,1.2386,1.2368,1.2363,1.2375,1.2378,1.2369,1.2364,1.2362,1.2361,1.2467,1.2379,1.238,1.238,1.2381,1.2381,1.2471,1.2453,1.2449,1.2431,1.2427,1.2418,1.24,1.2402,1.2385,1.2368,1.2376,1.2351,1.2342,1.2321,1.2314,1.2293,1.2305,1.2293,1.229,1.2286,1.2282,1.2368,1.229,1.229,1.229,1.229,1.2291,0,1.2386,1.2386,1.237,1.2358,1.2344,1.2362,1.2353,1.2339,1.2318,1.231,1.2295,1.227,1.225,1.2249,1.223,1.2214,1.2219,1.2208,1.2208,1.2206,1.2272,1.2281,1.2204,1.2204,1.2204,1.2204,1.2204,1.2204,1.234,1.2309,1.2315,1.2281,1.2281,1.2258,1.2251,1.2243,1.2238,1.221,1.2194,1.2195,1.219,1.2171,1.2153,1.2153,1.2144,1.213,1.2132,1.2193,1.2202,1.221,1.2218,1.2129,1.2129,1.2067,1.2067,1.2066]}]]